Regional Weather Roundup
Issued by NWS

Home | Current Version | Previous Version | Text Only | Print | Product List | Glossary On
Versions: 1 2 3 4 5 6 7 8 9 10 11 12 13 14 15 16 17 18 19 20 21 22 23 24 25 26 27 28 29 30 31 32 33 34 35 36 37 38 39 40 41 42 43 44 45 46 47 48 49 50
000
ASUS43 KOAX 202210
RWRNE

WEATHER ROUNDUP FOR NEBRASKA
NATIONAL WEATHER SERVICE OMAHA NE
500 PM CDT WED SEP 20 2017

NOTES: SATELLITE DATA IS BEING USED TO AUGMENT CLOUD COVER ABOVE
       12000 FEET.
       "FAIR" INDICATES FEW OR NO CLOUDS BELOW 12,000 FEET WITH NO
       SIGNIFICANT WEATHER AND/OR OBSTRUCTIONS TO VISIBILITY.


NEZ001>004-019>022-054>056-202300-
NEBRASKA PANHANDLE

CITY           SKY/WX    TMP DP  RH WIND       PRES   REMARKS
SCOTTSBLUFF    SUNNY     76  33  21 S16       29.82
ALLIANCE       SUNNY     73  36  25 S21G28    29.85
CHADRON        MOSUNNY   77  27  15 SW17G23   29.77
GORDON         FAIR      74  31  20 SW15G25   29.82F
KIMBALL        SUNNY     75  32  21 S18G30    29.87F
SIDNEY         SUNNY     76  28  17 S21G30    29.88
$$

NEZ057>060-069>072-079>082-202300-
SOUTHWEST NEBRASKA

CITY           SKY/WX    TMP DP  RH WIND       PRES   REMARKS
NORTH PLATTE   SUNNY     77  35  21 VRB3      29.87
IMPERIAL       SUNNY     79  24  13 S14       29.88
LEXINGTON      SUNNY     79  34  19 S5        29.87F
MCCOOK         SUNNY     80  32  17 E9        29.87
OGALLALA       SUNNY     79  28  15 S10G16    29.87F
$$

NEZ005>010-023>029-035>040-094-202300-
NORTH CENTRAL NEBRASKA

CITY           SKY/WX    TMP DP  RH WIND       PRES   REMARKS
VALENTINE      SUNNY     78  28  16 SW20      29.82
AINSWORTH      SUNNY     75  34  22 SW5       29.85S
BROKEN BOW     SUNNY     77  38  24 SE7       29.87
O`NEILL        SUNNY     75  40  28 CALM      29.86S
ORD            SUNNY     75  41  29 SE8       29.86
THEDFORD       SUNNY     76  34  21 S6        29.86F
$$

NEZ041-046>049-061>064-073>077-083>087-202300-
SOUTH CENTRAL NEBRASKA

CITY           SKY/WX    TMP DP  RH WIND       PRES   REMARKS
GRAND ISLAND   SUNNY     76  39  26 CALM      29.88
AURORA         SUNNY     77  42  28 CALM      29.87F
HASTINGS       SUNNY     79  38  22 E5        29.88
HEBRON         SUNNY     83  48  28 NE9       29.84S
HOLDREGE       SUNNY     77  36  22 E5        29.87F
KEARNEY        SUNNY     77  40  26 E7        29.88F
YORK           SUNNY     77  43  29 N5        29.87S
$$

NEZ011>018-030>034-042>045-202300-
NORTHEAST NEBRASKA

CITY           SKY/WX    TMP DP  RH WIND       PRES   REMARKS
NORFOLK        SUNNY     75  43  31 CALM      29.85S
ALBION         SUNNY     76  46  33 CALM      29.87S
BLAIR          SUNNY     77  53  43 N10       29.85S
COLUMBUS       SUNNY     78  44  29 NE7       29.86F
FREMONT        SUNNY     77  48  36 N6        29.86S
TEKAMAH        SUNNY     77  46  33 N9        29.85
WAYNE          SUNNY     73  49  42 NE3       29.86S
$$

NEZ050>053-065>068-078-088>093-202300-
SOUTHEAST NEBRASKA

CITY           SKY/WX    TMP DP  RH WIND       PRES   REMARKS
LINCOLN        SUNNY     82  52  35 NE12      29.85S
OMAHA EPPLEY   SUNNY     80  52  37 N10       29.84
BEATRICE       SUNNY     83  56  38 N6        29.83S
FALLS CITY     SUNNY     84  64  50 N3        29.80R
NEBRASKA CITY  SUNNY     81  59  48 N9        29.83S
PLATTSMOUTH    SUNNY     79  57  46 N8        29.84S
$$

NEZ044-045-051>053-067-202300-
OMAHA AREA

CITY           SKY/WX    TMP DP  RH WIND       PRES   REMARKS
OMAHA EPPLEY   SUNNY     80  52  37 N10       29.84
BLAIR          SUNNY     77  53  43 N10       29.85S
FREMONT        SUNNY     77  48  36 N6        29.86S
MILLARD        SUNNY     80  55  42 N8        29.85R
OFFUTT AFB     SUNNY     80  54  40 N7        29.84R
PLATTSMOUTH    SUNNY     79  57  46 N8        29.84S
WAHOO          FAIR      78  47  32 N5        29.85S
$$




USA.gov is the U.S. government's official web portal to all federal, state and local government web resources and services.